カタログに戻る

ARIANE 2 DEB

LostGTO
NORAD 27037·DEBRIS·🇫🇷 France

打ち上げ Jan 27, 1989 から Guiana Space Centre

Loading…

TLE

古いSource: Space-Track

元期: May 14, 2019, 20:51 UTC

1 27037U 89006S   19134.86909627 -.00000117  00000-0  49448-3 0  9999
2 27037   8.5276   1.1676 7180467 268.3186  15.8238  2.27428675146491

AllMySatでARIANE 2 DEBをリアルタイム追跡

Download on the App Store